カタログに戻る

THORAD DELTA 1 DEB

運用中LEO
NORAD 19183·DEBRIS·🇺🇸 United States

打ち上げ Nov 15, 1974 から Vandenberg Space Force Base

Loading…

次のパス (今後24時間)

TLE

最新Source: Space-Track

元期: Sep 13, 2026, 03:07 UTC

1 19183U 74089FD  26256.13048148  .00000589  00000-0  12991-2 0  9996
2 19183 103.5155 126.6811 0183343 103.3274  48.8298 13.29043110792417

AllMySatでTHORAD DELTA 1 DEBをリアルタイム追跡

Download on the App Store